Regional Weather Roundup
Issued by NWS

Home | Current Version | Previous Version | Text Only | Print | Product List | Glossary Off
Versions: 1 2 3 4 5 6 7 8 9 10 11 12 13 14 15 16 17 18 19 20 21 22 23 24 25 26 27 28 29 30 31 32 33 34 35 36 37 38 39 40 41 42 43 44 45 46 47 48 49 50

000
ASUS43 KDTX 040810
RWRMI
MICHIGAN HOURLY REGIONAL WEATHER ROUNDUP
NATIONAL WEATHER SERVICE DETROIT/PONTIAC MI
400 AM EDT SAT JUL 04 2015

NOTE: "FAIR" INDICATES FEW OR NO CLOUDS BELOW 12,000 FEET WITH NO
SIGNIFICANT WEATHER AND/OR OBSTRUCTION TO VISIBILITY.

MIZ047>049-052>055-059>063-066>070-074>076-081>083-040900-
SOUTHEAST LOWER MICHIGAN

CITY           SKY/WX    TMP DP  RH WIND       PRES   REMARKS
ADRIAN         CLEAR     55  53  93 CALM      29.95S
ALMA           CLEAR     51  50  97 CALM      29.94S
ANN ARBOR      FOG       49  48  97 CALM      29.94S VSB 1/4
BAD AXE        PTCLDY    50  48  92 CALM      29.93F
CARO           PTCLDY    47  47  99 CALM      29.93S
DETROIT CITY   CLEAR     60  53  77 NW3       29.93S
DETROIT        CLEAR     59  54  83 CALM      29.94S
FLINT          CLEAR     52  48  86 CALM      29.94S
GROSSE ILE     CLEAR     57  54  88 CALM      29.92F
HILLSDALE      CLEAR     55  55 100 CALM      29.95S FOG
HOWELL         CLEAR     51  50  94 CALM      29.93F

CITY           SKY/WX    TMP DP  RH WIND       PRES   REMARKS
JACKSON        CLEAR     53  52  96 SW3       29.94F
LAMBERTVILLE   CLEAR     55  53  91 CALM      29.94S FOG
LANSING        CLEAR     54  51  90 CALM      29.94F FOG
LAPEER         FAIR      47  46  96 CALM      29.94S FOG
MASON          CLEAR     51  50  98 CALM      29.94F FOG
MONROE         CLEAR     55  55  98 CALM      29.92F
MT. CLEMENS    CLEAR     56  53  90 NW2       29.91S
PONTIAC        CLEAR     55  53  93 CALM      29.93S FOG
PORT HOPE        N/A     60  52  74 SW7       29.91F
PORT HURON       N/A     52  50  93 CALM      29.93S FOG
TRI CITIES     CLOUDY    59  51  75 SW3       29.94F
MIDLAND        FAIR      51  49  93 CALM      29.93S
TROY           CLEAR     60  54  82 CALM      29.95S
SAGINAW HB     CLEAR     54  50  87 CALM      29.93S
$$
MIZ043>046-050>051-056>058-064>065-071>073-077>080-040900-
SOUTHWEST LOWER MICHIGAN

CITY           SKY/WX    TMP DP  RH WIND       PRES   REMARKS
BATTLE CREEK   CLEAR     56  52  86 CALM      29.95S
BENTON HARBOR  CLEAR     51  50  96 CALM      29.95S FOG
BIG RAPIDS     CLEAR     51  48  90 CALM      29.94S
COLDWATER      CLEAR     54  54  99 SE3       29.95S FOG
FREMONT        FAIR      52  51  97 CALM      29.94S
HOLLAND        CLEAR     55  51  86 CALM      29.95S
GRAND RAPIDS   CLEAR     54  52  93 SE5       29.94F
IONIA          FAIR      54  52  94 CALM      29.94S
KALAMAZOO      CLEAR     56  53  90 CALM      29.95S FOG
LUDINGTON      MOCLDY    61  52  73 SW6       29.93S
MARSHALL       PTCLDY    53  52  95 CALM      29.94S FOG
MOUNT PLEASANT CLEAR     52  50  93 CALM      29.93S
MUSKEGON       CLEAR     53  50  89 CALM      29.95R
SOUTH HAVEN    CLEAR     52  50  94 CALM      29.95R
$$
MIZ016>042-040900-
NORTHERN LOWER MICHIGAN

CITY           SKY/WX    TMP DP  RH WIND       PRES   REMARKS
ALPENA         PTCLDY    60  53  77 CALM      29.91S
BEAVER ISLAND  CLEAR     54  49  84 W6        29.90S
BELLAIRE       CLOUDY    59  54  82 CALM      29.91R
CADILLAC       MOCLDY    51  50  93 CALM      29.93S
CHARLEVOIX     PTCLDY    61  49  66 SW3       29.92S
FRANKFORT      MOCLDY    65  48  54 W3        29.91F
GAYLORD        CLOUDY    59  51  75 SW3       29.92S
GRAYLING       CLOUDY    54  53  94 CALM      29.93S
HARBOR SPRINGS CLEAR     56  52  86 CALM      29.90R
HOUGHTON LAKE  MOCLDY    61  53  75 SW5       29.93F
MANISTEE       MOCLDY   N/A N/A N/A E3        29.92F
OSCODA         CLOUDY    58  52  79 CALM      29.91S
PELLSTON       PTCLDY    53  51  93 N3        29.90S
ROGERS CITY    CLOUDY    62  55  80 SW3       29.90S
TRAVERSE CITY  PTCLDY    63  46  54 CALM      29.89S
$$
MIZ007>008-015-040900-
EASTERN UPPER MICHIGAN

CITY           SKY/WX    TMP DP  RH WIND       PRES   REMARKS
KINROSS        CLEAR     54  48  82 W3        29.90R
MACKINAC ISLAN CLEAR     58  51  76 W8        29.89S
NEWBERRY       MOCLDY    48  48  99 CALM      29.90R
S. S. MARIE    CLEAR     53  50  89 CALM      29.88S
MUNISING         N/A     54  52  93 CALM      29.90R
$$
MIZ004>006-011>014-085-040900-
CENTRAL UPPER MICHIGAN

CITY           SKY/WX    TMP DP  RH WIND       PRES   REMARKS
MANISTIQUE     FOG       51  50  96 CALM      29.89R VSB 1/2
ESCANABA       CLEAR     55  54  94 CALM      29.89R
MENOMINEE      PTCLDY    61  55  82 CALM      29.89S
SAWYER-GWINN   CLEAR     53  51  94 N3        29.92R FOG
$$
MIZ001>003-009>011-084-040900-
WESTERN UPPER MICHIGAN

CITY           SKY/WX    TMP DP  RH WIND       PRES   REMARKS
IRON MOUNTAIN  CLOUDY    60  58  92 W3        29.90S
HOUGHTON       CLEAR     61  54  77 NE7       29.91S
COPPER HARBOR    N/A     56  53  90 CALM      29.91S
IRONWOOD       CLEAR     54  52  94 CALM      29.90R
$$

ABBREVIATIONS USED IN REMARKS
   TC - TEMPERATURE IN CELSIUS
  WCI - WIND CHILL INDEX
   HX - HEAT INDEX
  VSB - VISIBILITY



USA.gov is the U.S. government's official web portal to all federal, state and local government web resources and services.